Weather History for KM30 - June, 2013

Change the Weather History Date:

Saturday, June 22, 2013

  Actual Average (KPAH) Record (KPAH)
Temperature  
Mean Temperature 80 °F 77 °F  
Max Temperature 90 °F 88 °F 100 °F (1988)
Min Temperature 70 °F 67 °F 45 °F (1992)
Degree Days  
Heating Degree Days 0 0  
Month to date heating degree days 0  
Since 1 June heating degree days 0  
Since 1 July heating degree days 4128  
Cooling Degree Days 15 12  
Month to date cooling degree days 214  
Year to date cooling degree days 386  
Since 1 June cooling degree days 214  
Growing Degree Days 30 (Base 50)    
Moisture  
Dew Point 68 °F    
Average Humidity 68    
Maximum Humidity 100    
Minimum Humidity 42    
Precipitation  
Precipitation 0.00 in 0.14 in 3.29 in (1979)
Month to date precipitation 2.97  
Year to date precipitation 24.19  
Snow  
Snow 0.00 in 0.00 in - ()
Month to date snowfall 0.0  
Since 1 June snowfall 0.0  
Since 1 July snowfall 9.1  
Snow Depth -    
Sea Level Pressure  
Sea Level Pressure 30.10 in    
Wind  
Wind Speed 3 mph (South)    
Max Wind Speed 15 mph    
Max Gust Speed 18 mph    
Visibility 10 miles    
Events Rain    
T = Trace of Precipitation, MM = Missing Value Source: NWS Daily Summary

Daily Weather History Graph

Daily Weather History Graph

Search for Another Location

Airport or City:

Trip Planner

Search our weather history database for the weather conditions in past years. The results will help you decide how hot, cold, wet, or windy it might be!

Date:

Astronomy

Jun. 22, 2013 Rise Set
Actual Time 5:35 AM CDT 8:18 PM CDT
Civil Twilight 5:04 AM CDT 8:49 PM CDT
Nautical Twilight 4:25 AM CDT 9:28 PM CDT
Astronomical Twilight 3:42 AM CDT 10:11 PM CDT
Moon 7:34 PM CDT (6/22) 4:46 AM CDT (6/22)
Length of Visible Light 15h 45m
Length of Day
14h 43m
Waxing Gibbous, 99% of the Moon is Illuminated
Jun 22
Waxing Gibbous
Jun 23
Full
Jun 29
Last Quarter
Jul 8
New
Jul 15
First Quarter

Hourly Weather History & Observations

Time (CDT) Temp. Heat Index Dew Point Humidity Pressure Visibility Wind Dir Wind Speed Gust Speed Precip Events Conditions
12:15 AM 78.1 °F - 68.0 °F 71% 30.08 in 10.0 mi South 3.5 mph - N/A   Clear
12:35 AM 77.9 °F - 68.0 °F 71% 30.08 in 10.0 mi SSE 4.6 mph - N/A   Clear
12:55 AM 77.9 °F - 68.0 °F 71% 30.10 in 10.0 mi Calm Calm - N/A   Clear
1:15 AM 77.4 °F - 68.0 °F 73% 30.10 in 10.0 mi Calm Calm - N/A   Clear
1:35 AM 76.3 °F - 68.0 °F 75% 30.09 in 10.0 mi South 3.5 mph - N/A   Clear
1:55 AM 76.5 °F - 68.0 °F 75% 30.09 in 10.0 mi Calm Calm - N/A   Clear
2:15 AM 75.9 °F - 68.0 °F 76% 30.10 in 10.0 mi Calm Calm - N/A   Clear
2:35 AM 73.9 °F - 68.2 °F 82% 30.10 in 10.0 mi Calm Calm - N/A   Clear
2:55 AM 73.0 °F - 70.0 °F 90% 30.09 in 10.0 mi Calm Calm - N/A   Clear
3:15 AM 72.5 °F - 71.4 °F 96% 30.09 in 10.0 mi Calm Calm - N/A   Clear
3:35 AM 72.0 °F - 71.8 °F 99% 30.09 in 10.0 mi Calm Calm - N/A   Clear
3:55 AM 71.6 °F - 71.6 °F 100% 30.09 in 7.0 mi Calm Calm - N/A   Clear
4:15 AM 72.5 °F - 70.9 °F 95% 30.08 in 10.0 mi Calm Calm - N/A   Clear
4:35 AM 71.2 °F - 71.2 °F 100% 30.09 in 10.0 mi Calm Calm - N/A   Clear
4:55 AM 71.6 °F - 71.6 °F 100% 30.09 in 10.0 mi Calm Calm - N/A   Clear
5:15 AM 72.0 °F - 71.1 °F 97% 30.10 in 10.0 mi Calm Calm - N/A   Clear
5:35 AM 70.7 °F - 70.7 °F 100% 30.11 in 7.0 mi Calm Calm - N/A   Clear
5:55 AM 70.7 °F - 70.7 °F 100% 30.12 in 7.0 mi Calm Calm - N/A   Clear
6:15 AM 72.0 °F - 72.0 °F 100% 30.12 in 10.0 mi Calm Calm - N/A   Clear
6:35 AM 72.7 °F - 72.7 °F 100% 30.12 in 5.0 mi Calm Calm - N/A   Clear
6:55 AM 74.8 °F - 71.2 °F 88% 30.13 in 10.0 mi Calm Calm - N/A   Clear
7:15 AM 76.1 °F - 71.2 °F 85% 30.13 in 10.0 mi South 3.5 mph - N/A   Clear
7:35 AM 76.8 °F - 71.1 °F 82% 30.13 in 10.0 mi South 4.6 mph - N/A   Clear
7:55 AM 78.1 °F - 69.3 °F 74% 30.15 in 10.0 mi South 3.5 mph - N/A   Clear
8:15 AM 79.5 °F - 69.4 °F 71% 30.14 in 10.0 mi South 4.6 mph - N/A   Clear
8:35 AM 80.6 °F 83.5 °F 68.9 °F 67% 30.15 in 10.0 mi South 6.9 mph - N/A   Clear
8:55 AM 81.5 °F 84.6 °F 68.9 °F 65% 30.15 in 10.0 mi South 4.6 mph - N/A   Clear
9:15 AM 82.8 °F 86.0 °F 68.4 °F 62% 30.15 in 10.0 mi South 8.1 mph - N/A   Clear
9:35 AM 83.5 °F 86.9 °F 68.7 °F 61% 30.15 in 10.0 mi South 5.8 mph - N/A   Clear
9:55 AM 84.4 °F 87.9 °F 68.7 °F 59% 30.15 in 10.0 mi South 6.9 mph - N/A   Clear
10:15 AM 85.1 °F 88.8 °F 68.9 °F 58% 30.16 in 10.0 mi South 4.6 mph - N/A   Clear
10:35 AM 86.0 °F 89.4 °F 68.2 °F 55% 30.15 in 10.0 mi South 5.8 mph - N/A   Clear
10:55 AM 86.0 °F 89.1 °F 67.8 °F 54% 30.15 in 10.0 mi South 6.9 mph - N/A   Clear
11:15 AM 86.7 °F 90.3 °F 68.2 °F 54% 30.15 in 10.0 mi South 8.1 mph - N/A   Clear
11:35 AM 87.1 °F 90.2 °F 67.5 °F 52% 30.14 in 10.0 mi South 5.8 mph - N/A   Clear
11:55 AM 87.6 °F 91.1 °F 68.0 °F 52% 30.15 in 10.0 mi South 4.6 mph - N/A   Clear
12:15 PM 87.6 °F 90.8 °F 67.6 °F 51% 30.15 in 10.0 mi SSE 4.6 mph - N/A   Clear
12:35 PM 88.5 °F 91.9 °F 67.6 °F 50% 30.14 in 10.0 mi South 5.8 mph - N/A   Clear
12:55 PM 88.2 °F 91.3 °F 67.5 °F 50% 30.13 in 10.0 mi South 5.8 mph - N/A   Clear
1:15 PM 88.7 °F 91.9 °F 67.5 °F 49% 30.13 in 10.0 mi SSW 5.8 mph - N/A   Clear
1:35 PM 89.8 °F 93.3 °F 67.5 °F 48% 30.12 in 10.0 mi South 8.1 mph - N/A   Clear
1:55 PM 89.4 °F 92.7 °F 67.1 °F 48% 30.11 in 10.0 mi SE 5.8 mph - N/A   Scattered Clouds
2:15 PM 89.8 °F 93.3 °F 67.8 °F 48% 30.09 in 10.0 mi South 5.8 mph - N/A   Scattered Clouds
2:35 PM 89.4 °F 92.7 °F 67.3 °F 48% 30.08 in 10.0 mi South 8.1 mph - N/A   Scattered Clouds
2:55 PM 87.6 °F 90.4 °F 66.9 °F 50% 30.07 in 10.0 mi South 6.9 mph - N/A   Mostly Cloudy
3:15 PM 88.0 °F 91.0 °F 67.3 °F 50% 30.06 in 10.0 mi South 9.2 mph - N/A   Scattered Clouds
3:35 PM 88.9 °F 91.4 °F 66.2 °F 47% 30.06 in 10.0 mi SSE 9.2 mph - N/A   Scattered Clouds
3:55 PM 89.6 °F 90.8 °F 63.9 °F 42% 30.06 in 10.0 mi South 5.8 mph - N/A   Scattered Clouds
4:15 PM 89.8 °F 91.4 °F 64.6 °F 43% 30.06 in 10.0 mi South 8.1 mph - N/A   Clear
4:35 PM 89.6 °F 91.1 °F 64.2 °F 43% 30.06 in 10.0 mi SSE 5.8 mph - N/A   Clear
4:55 PM 90.0 °F 92.0 °F 65.3 °F 44% 30.06 in 10.0 mi SE 5.8 mph - N/A   Scattered Clouds
5:15 PM 89.6 °F 92.2 °F 66.0 °F 46% 30.06 in 10.0 mi SSE 6.9 mph - N/A   Scattered Clouds
5:35 PM 89.1 °F 91.7 °F 66.4 °F 47% 30.06 in 10.0 mi SE 4.6 mph - N/A   Scattered Clouds
5:55 PM 88.7 °F 90.8 °F 65.7 °F 46% 30.05 in 10.0 mi South 4.6 mph - N/A   Clear
6:15 PM 88.7 °F 90.4 °F 65.1 °F 45% 30.06 in 10.0 mi South 3.5 mph - N/A   Clear
6:35 PM 87.8 °F 90.0 °F 65.7 °F 48% 30.06 in 10.0 mi Calm Calm - N/A   Clear
6:55 PM 86.4 °F 89.7 °F 68.2 °F 54% 30.07 in 10.0 mi Calm Calm - N/A   Clear
7:15 PM 85.3 °F 89.1 °F 68.9 °F 58% 30.07 in 10.0 mi Calm Calm - N/A   Clear
7:35 PM 82.4 °F 87.0 °F 71.2 °F 69% 30.07 in 10.0 mi Calm Calm - N/A   Clear
7:55 PM 79.2 °F - 65.1 °F 62% 30.09 in 10.0 mi North 15.0 mph 18.4 mph N/A   Mostly Cloudy
8:15 PM 76.8 °F - 64.4 °F 65% 30.10 in 10.0 mi North 11.5 mph 17.3 mph N/A Rain Rain
8:35 PM 74.3 °F - 66.6 °F 77% 30.09 in 10.0 mi North 8.1 mph - N/A   Mostly Cloudy
8:55 PM 73.6 °F - 67.1 °F 80% 30.10 in 10.0 mi North 3.5 mph - N/A   Overcast
9:15 PM 74.7 °F - 65.1 °F 72% 30.12 in 10.0 mi West 8.1 mph - N/A   Mostly Cloudy
9:35 PM 73.8 °F - 64.0 °F 72% 30.12 in 10.0 mi West 8.1 mph - N/A   Mostly Cloudy
9:55 PM 72.7 °F - 64.8 °F 76% 30.12 in 10.0 mi West 5.8 mph - N/A   Scattered Clouds
10:15 PM 72.0 °F - 64.9 °F 78% 30.12 in 10.0 mi West 4.6 mph - N/A   Clear
10:35 PM 71.8 °F - 64.6 °F 78% 30.11 in 10.0 mi Calm Calm - N/A   Clear
10:55 PM 71.2 °F - 64.4 °F 79% 30.09 in 10.0 mi Calm Calm - N/A   Scattered Clouds
11:15 PM 70.5 °F - 64.6 °F 81% 30.07 in 10.0 mi South 3.5 mph - N/A   Clear
11:35 PM 70.7 °F - 64.6 °F 81% 30.04 in 10.0 mi SE 4.6 mph - N/A   Clear
11:55 PM 70.7 °F - 64.2 °F 80% 30.03 in 10.0 mi SSE 4.6 mph - N/A   Clear